EYKAEYVI

Guest
Details From EYKA - Kaunas Intl
To EYVI - VILNIUS INTL
Flight Number -
Tags generated
Created
Modified
Stats Distance 46 nm / 85 km
Max Altitude 4,900 ft / 1,494 m
Waypoints 3
Social Downloads 6
Likes 0
Share VATSIM

Download

Looking for another format? Having issues loading an existing format? Contact us
Advertisement - Login to hide

Notes

Basic altitude profile: - Ascent Rate: 2500ft/min - Ascent Speed: 250kts - Cruise Altitude: 35000ft - Cruise Speed: 420kts - Descent Rate: 1500ft/min - Descent Speed: 250kts Options: - Use NATs: yes - Use PACOTS: yes - Use low airways: yes - Use high airways: yes

Route

EYKA ELEKA EYVI

ID Type Via Altitude Latitude Longitude Leg Dist Tot Dist Heading (true) Name
O EYKA APT - 0 ft / 0 m 54.96388˚ 24.08400˚ - 0 nm - Kaunas Intl
ELEKA FIX - 4,900 ft / 1,494 m 54.80056˚ 24.68889˚ 23 nm 23 nm 115° / 115° -
O EYVI APT - 0 ft / 0 m 54.63417˚ 25.28580˚ 22 nm 46 nm 116° / 116° VILNIUS INTL

Altitude Profile

Advertisement - Login to hide

EYKA

Details ICAO EYKA (KUN)
Name Kaunas Intl
Region Lithuania
Timezone Europe/Vilnius (UTC+2.0)
Stats Elevation 256 ft / 78 m (AMSL)
Location 54.963881° 24.084001°
Runways 1
Magnetic Variation 7.208° E

METAR

EYKA 121550Z 20012KT 9999 SCT033 OVC052 08/03 Q0997 R08/29//95

Decode

TAF

TAF TAF EYKA 121110Z 1212/1312 18014G24KT 9000 OVC035 TEMPO 1214/1217 BKN015 BECMG 1217/1219 24018KT TEMPO 1219/1301 24018G34KT BECMG 1305/1307 24008KT BKN015

Decode

Departure Runways

ID Width Length Bearing (true) Bearing (mag) Surface Threshold Offset Overrun Length
08 148 ft / 45 m 10,309 ft / 3,142 m 85.05° 77.84° Asphalt 1,116 ft / 340 m 240 ft / 73 m
26 148 ft / 45 m 10,309 ft / 3,142 m 265.09° 257.88° Asphalt 789 ft / 240 m 240 ft / 73 m

EYVI

Details ICAO EYVI (VNO)
Name VILNIUS INTL
Region Lithuania
Timezone Europe/Vilnius (UTC+2.0)
Stats Elevation 646 ft / 197 m (AMSL)
Location 54.634166° 25.285796°
Runways 1
Magnetic Variation 7.470° E

METAR

EYVI 121550Z 20012KT 9999 SCT043 BKN160 07/05 Q0999 R19/2///95 NOSIG

Decode

TAF

TAF TAF EYVI 121108Z 1212/1312 19010G20KT 9000 BKN020 TEMPO 1217/1222 24020G33KT TEMPO 1222/1306 3000 RA BR BKN005

Decode

Destination Runways

ID Width Length Bearing (true) Bearing (mag) Surface Threshold Offset Overrun Length
02 164 ft / 50 m 8,210 ft / 2,502 m 21.89° 14.42° Asphalt 0 ft / 0 m 151 ft / 46 m
20 164 ft / 50 m 8,210 ft / 2,502 m 201.91° 194.44° Asphalt 0 ft / 0 m 0 ft / 0 m

Approach Navaids

Runway Type Ident Frequency Range Bearing (true) Bearing (mag) Slope Elevation
02 Localiser IAV 110.50 MHz 18 nm / 33 km 21.88° 14.41° - 646 ft / 197 m (AMSL)
02 Glidescope IAV 110.50 MHz 10 nm / 19 km 21.90° 14.43° 2.67° 646 ft / 197 m (AMSL)
20 Localiser IBK 109.10 MHz 18 nm / 33 km 201.87° 194.40° - 646 ft / 197 m (AMSL)
20 Glidescope IBK 109.10 MHz 10 nm / 19 km 201.90° 194.43° 3.00° 646 ft / 197 m (AMSL)
20 DME IBK 109.10 MHz 18 nm / 33 km - - - 651 ft / 198 m (AMSL)

Popular Alternatives